CST,Max TemperatureF,Mean TemperatureF,Min TemperatureF,Max Dew PointF,MeanDew PointF,Min DewpointF,Max Humidity, Mean Humidity, Min Humidity, Max Sea Level PressureIn, Mean Sea Level PressureIn, Min Sea Level PressureIn, Max VisibilityMiles, Mean VisibilityMiles, Min VisibilityMiles, Max Wind SpeedMPH, Mean Wind SpeedMPH, Max Gust SpeedMPH,PrecipitationIn, CloudCover, Events, WindDirDegrees
2012-1-1,69,58,46,70,49,35,100,69,34,30.53,30.32,30.10,10,8,0,25,12,34,0.09,3,Fog-Rain,346
2012-1-2,63,51,39,36,32,26,82,56,25,30.69,30.60,30.53,10,10,10,21,11,29,0.00,0,,356
2012-1-3,57,46,34,53,36,24,96,68,31,30.61,30.50,30.33,10,10,10,16,8,18,0.00,0,,84
2012-1-4,71,56,42,60,51,42,100,92,66,30.32,30.26,30.22,10,6,0,9,4,,0.00,1,Fog,95
2012-1-5,73,64,54,63,59,54,100,90,68,30.32,30.23,30.13,10,10,9,9,6,,0.00,2,,109
2012-1-6,70,65,60,63,61,56,100,90,61,30.12,30.04,29.99,10,10,10,10,8,,0.01,3,Rain,179
2012-1-7,72,64,55,65,60,55,100,96,75,30.06,29.99,29.96,10,5,0,14,5,,0.00,3,Fog,161
2012-1-8,77,68,60,70,66,61,100,95,74,30.05,29.99,29.95,10,6,0,17,7,,0.00,5,Fog,126
2012-1-9,71,61,51,70,66,51,100,99,94,30.01,29.91,29.85,10,7,1,21,13,28,0.69,7,Rain-Thunderstorm,195
2012-1-10,59,50,42,50,44,39,96,81,58,30.06,29.99,29.91,10,10,10,22,16,31,0.00,3,,293
2012-1-11,66,54,43,60,49,39,93,76,45,29.92,29.83,29.74,10,10,10,15,8,29,0.00,0,,228
2012-1-12,55,46,37,49,29,17,77,53,27,30.31,30.17,29.89,10,10,10,34,19,48,0.00,0,,346
2012-1-13,54,42,30,36,27,18,92,60,27,30.38,30.33,30.30,10,10,10,7,3,,0.00,0,,153
2012-1-14,61,48,35,45,36,29,93,69,30,30.45,30.38,30.33,10,10,10,8,3,,0.00,0,,161
2012-1-15,68,54,39,62,53,39,100,89,66,30.38,30.30,30.22,10,9,1,15,6,,0.00,3,,135
2012-1-16,75,68,61,68,65,61,100,96,79,30.19,30.10,30.02,10,8,5,18,11,25,0.00,4,,159
2012-1-17,71,63,53,70,63,39,100,91,57,30.21,30.06,30.00,10,6,3,24,9,29,0.00,7,Rain,205
2012-1-18,60,51,42,56,42,33,96,70,46,30.29,30.20,30.12,10,10,10,17,12,25,0.00,2,,88
2012-1-19,68,60,51,66,60,51,100,97,88,30.10,29.98,29.91,10,5,0,12,4,,0.00,6,Fog,182
2012-1-20,73,68,64,70,66,64,100,98,87,29.95,29.88,29.84,10,5,0,20,9,25,0.00,6,Fog,178
2012-1-21,69,64,59,70,62,53,100,93,73,29.98,29.92,29.88,10,5,0,15,7,,0.00,8,Fog,252
2012-1-22,73,66,60,70,67,55,100,96,77,29.91,29.84,29.80,10,5,0,18,8,23,0.00,6,Fog,166
2012-1-23,73,64,55,67,58,47,100,84,38,30.08,29.98,29.91,10,6,0,15,5,,0.00,5,Fog,5
2012-1-24,75,69,63,72,68,53,100,92,70,29.99,29.91,29.84,10,9,7,23,14,36,0.00,7,,120
2012-1-25,71,63,55,72,66,54,100,96,81,29.95,29.81,29.72,10,7,1,32,19,41,0.40,7,Rain-Thunderstorm,155
2012-1-26,68,58,48,54,48,42,100,75,39,30.09,30.00,29.94,10,10,10,20,9,26,0.00,0,,297
2012-1-27,68,56,44,57,50,39,100,79,52,30.11,30.06,30.00,10,10,10,20,8,,0.00,0,,116
2012-1-28,68,58,46,55,45,33,100,69,27,30.40,30.27,30.09,10,10,10,23,11,32,0.00,1,,20
2012-1-29,64,50,37,47,41,35,96,71,37,30.47,30.40,30.35,10,10,10,15,8,18,0.00,0,,58
2012-1-30,69,58,46,62,56,45,100,87,68,30.34,30.24,30.16,10,10,10,20,9,23,0.00,3,Rain,100
2012-1-31,73,67,61,70,66,61,100,96,83,30.15,30.10,30.05,10,7,0,10,6,,0.23,6,Fog-Rain,146